ワイズ彗星

P/2017 S1 ( WISE )

English version
Home page
Updated on October 9, 2017

---------------------------------------------------------------------

・ プロフィール

検出日 2017年9月20日
検出光度 19.4等
検出者 E. Schwab and D. Abreu (European Space Agency's Optical Ground Station at Tenerife)

・ 写真集

・ 軌道要素

Epoch 2017 Sept. 4.0 TT = JDT 2458000.5
T 2017 Aug. 18.42953 TT                                 MPCW
q   1.8607475            (2000.0)            P               Q
n   0.13816263     Peri.  354.15605     +0.99767039     +0.06633899
a   3.7057460      Node     2.23395     -0.03312215     +0.67485483
e   0.4978751      Incl.   24.07886     -0.05963814     +0.73496265
P   7.13
From 62 observations 2010 Aug. 6-2017 Sept. 20, mean residual 0".5.

・ 光度変化

        16.0 + 5 logΔ + 10.0 log r

---------------------------------------------------------------------

軌道要素はM.P.E.C. 2017-S90に掲載されたものです。
光度グラフはComet for Windowsで作成したものです。

---------------------------------------------------------------------

Copyright(C) Seiichi Yoshida (comet@aerith.net). All rights reserved.